Location: ????????
(55.6189°N, 38.3031°E)
Time: 18:15:20
(UTC+00:00)

NOSS 3-4 (C) - Pass Details

Date: 15 November 2019
Orbit: 908 x 1304 km, 63.4° (Epoch: 02 December)

Event Time Altitude Azimuth Distance (km) Brightness Sun altitude
Exits shadow 02:32:32 28° 308° (NW) 1,892 4.5 -20.5°
Maximum altitude 02:36:31 87° 222° (SW) 1,121 3.7 -20.0°
Drops below altitude 10° 02:44:00 10° 133° (SE) 3,126 6.9 -18.9°
Sets 02:46:52 0° 133° (SE) 4,139 7.6 -18.5°
